,,PA_Meas_PMT16A,,PR_Meas_QMR101_102,,RH_Meas_QMH101,,SR_Meas_QMS101,,TA_Meas_QMH101,,GenWind,,GenWind,
time,status,PA,status,PR,status,RH,status,SR,status,TA,status,DirAvg,status,SpdAvg,
2013-04-18, 07:30:04,VALID,916.578,VALID,0,VALID,83.6822,VALID,179.964,VALID,21.125,VALID,5,VALID,0,
2013-04-18, 07:32:04,VALID,916.266,VALID,0,VALID,83.3849,VALID,137.417,VALID,21.4404,VALID,4,VALID,0,
2013-04-18, 07:54:04,VALID,915.621,VALID,0,VALID,85.8168,VALID,127.103,VALID,21.0876,VALID,264,VALID,0,
2013-04-18, 07:55:04,VALID,915.866,VALID,0,VALID,86.0455,VALID,129.896,VALID,21.0275,VALID,264,VALID,0,
2013-04-18, 07:56:04,INVALID,913.232,VALID,0,VALID,86.1294,VALID,132.797,VALID,21.1055,VALID,264,VALID,0,
2013-04-18, 07:57:04,VALID,916.418,VALID,0,VALID,85.6491,VALID,135.806,VALID,21.164,VALID,264,VALID,0,
2013-04-18, 07:58:04,VALID,916.765,VALID,0,VALID,85.2603,VALID,138.921,VALID,21.2616,VALID,264,VALID,0,
2013-04-18, 08:01:04,VALID,916.634,VALID,0,VALID,85.3213,VALID,148.806,VALID,21.5006,VALID,264,VALID,0,
2013-04-18, 08:02:04,VALID,916.819,VALID,0,VALID,83.3316,VALID,152.566,VALID,21.5168,VALID,264,VALID,0,
2013-04-18, 08:03:04,INVALID,913.239,VALID,0,VALID,84.1091,VALID,156.757,VALID,21.6177,VALID,264,VALID,0,
2013-04-18, 08:04:04,VALID,916.739,VALID,0,VALID,83.5145,VALID,160.947,VALID,21.6534,VALID,264,VALID,0,
2013-04-18, 08:05:04,VALID,916.686,VALID,0,VALID,82.8513,VALID,164.815,VALID,21.712,VALID,264,VALID,0,
2013-04-18, 08:06:04,VALID,916.611,VALID,0,VALID,80.6024,VALID,168.468,VALID,21.7493,VALID,2,VALID,0,
2013-04-18, 08:07:04,VALID,916.176,VALID,0,VALID,80.671,VALID,171.261,VALID,21.7688,VALID,358,VALID,0,
2013-04-18, 08:08:04,VALID,916.638,VALID,0,VALID,82.9123,VALID,173.195,VALID,21.8485,VALID,352,VALID,0,
2013-04-18, 08:09:04,INVALID,911.568,VALID,0,VALID,80.9302,VALID,174.377,VALID,21.8257,VALID,345,VALID,0,
2013-04-18, 08:10:04,VALID,916.319,VALID,0,VALID,83.5069,VALID,174.699,VALID,21.9656,INVALID,360,VALID,0,
2013-04-18, 08:11:04,VALID,916.659,VALID,0,VALID,83.7356,VALID,174.377,VALID,22.042,INVALID,360,VALID,0,
2013-04-18, 08:12:04,VALID,916.299,VALID,0,VALID,80.1831,VALID,173.517,VALID,22.0387,VALID,347,VALID,0,
2013-04-18, 08:13:04,VALID,916.906,VALID,0,VALID,80.2974,VALID,172.336,VALID,22.1396,VALID,13,VALID,0,
2013-04-18, 08:14:04,VALID,916.68,VALID,0,VALID,80.3432,VALID,170.724,VALID,22.1981,VALID,19,VALID,0,
2013-04-18, 08:15:04,VALID,916.962,VALID,0,VALID,79.8248,VALID,169.327,VALID,22.2567,VALID,18,VALID,0,
2013-04-18, 08:16:04,VALID,916.704,VALID,0,VALID,80.0382,VALID,167.393,VALID,22.255,VALID,13,VALID,0,
2013-04-18, 08:17:04,VALID,916.8,VALID,0,VALID,78.4297,VALID,164.17,VALID,22.255,VALID,13,VALID,0,
2013-04-18, 08:18:04,VALID,916.917,VALID,0,VALID,79.8858,VALID,160.947,VALID,22.2762,VALID,13,VALID,0,
2013-04-18, 08:19:04,VALID,915.837,VALID,0,VALID,80.6176,VALID,159.872,VALID,22.3135,VALID,13,VALID,0,
2013-04-18, 08:20:04,VALID,916.993,VALID,0,VALID,78.6508,VALID,157.186,VALID,22.4128,VALID,13,VALID,0,
2013-04-18, 08:21:04,VALID,916.806,VALID,0,VALID,75.8149,VALID,153.211,VALID,22.4518,VALID,4,VALID,0,
2013-04-18, 08:22:04,VALID,917.458,VALID,0,VALID,76.4171,VALID,152.029,VALID,22.4696,VALID,8,VALID,0,
2013-04-18, 08:23:04,VALID,916.798,VALID,0,VALID,77.027,VALID,157.724,VALID,22.4891,VALID,15,VALID,0,
2013-04-18, 08:24:04,VALID,916.098,VALID,0,VALID,77.7741,VALID,171.798,VALID,22.5494,VALID,15,VALID,0,
2013-04-18, 08:25:04,VALID,916.745,VALID,0,VALID,78.4678,VALID,181.468,VALID,22.6257,VALID,13,VALID,0,
2013-04-18, 08:26:04,VALID,916.814,VALID,0,VALID,76.1427,VALID,179.534,VALID,22.6452,VALID,360,VALID,0,
2013-04-18, 08:27:04,VALID,916.746,VALID,0,VALID,77.7131,VALID,180.501,VALID,22.6843,VALID,360,VALID,0,
2013-04-18, 08:28:04,VALID,917.002,VALID,0,VALID,77.149,VALID,214.238,VALID,22.686,VALID,354,VALID,0,
2013-04-18, 08:29:04,VALID,916.967,VALID,0,VALID,77.8351,VALID,207.361,VALID,22.6877,VALID,9,VALID,0,
2013-04-18, 08:30:04,VALID,916.874,VALID,0,VALID,76.6916,VALID,201.13,VALID,22.6877,VALID,357,VALID,0,
2013-04-18, 08:31:04,VALID,917.01,VALID,0,VALID,75.8682,VALID,209.51,VALID,22.6487,VALID,350,VALID,0,
2013-04-18, 08:32:04,VALID,916.837,VALID,0,VALID,77.0041,VALID,219.825,VALID,22.6487,VALID,41,VALID,0,
2013-04-18, 08:33:04,VALID,916.945,VALID,0,VALID,77.492,VALID,235.833,VALID,22.6487,VALID,27,VALID,0,
2013-04-18, 08:34:04,VALID,917.086,VALID,0,VALID,78.4602,VALID,241.528,VALID,22.6682,VALID,9,VALID,0,
2013-04-18, 08:35:04,VALID,917.091,VALID,0,VALID,76.9965,VALID,247.652,VALID,22.6292,VALID,353,VALID,0,
2013-04-18, 08:36:04,VALID,916.978,VALID,0,VALID,78.3611,VALID,260.008,VALID,22.6665,VALID,6,VALID,0,
2013-04-18, 08:37:04,VALID,916.995,VALID,0,VALID,76.9813,VALID,263.553,VALID,22.686,VALID,6,VALID,0,
2013-04-18, 08:38:04,VALID,916.704,VALID,0,VALID,76.379,VALID,243.032,VALID,22.7445,VALID,6,VALID,0,
2013-04-18, 08:39:04,VALID,916.513,VALID,0,VALID,77.7512,VALID,213.056,VALID,22.8439,VALID,5,VALID,0,
2013-04-18, 08:40:04,VALID,918.444,VALID,0,VALID,76.5848,VALID,220.899,VALID,22.8616,INVALID,360,VALID,0,
2013-04-18, 08:41:04,VALID,916.863,VALID,0,VALID,78.5212,VALID,229.817,VALID,22.8421,VALID,19,VALID,0,
2013-04-18, 08:42:04,VALID,917.4,VALID,0,VALID,77.0499,VALID,222.618,VALID,22.8031,VALID,10,VALID,0,
2013-04-18, 08:43:04,VALID,916.429,VALID,0,VALID,77.1413,VALID,233.04,VALID,22.7641,VALID,25,VALID,0,
2013-04-18, 08:44:04,VALID,917.608,VALID,0,VALID,77.6902,VALID,238.412,VALID,22.7836,VALID,33,VALID,0,
2013-04-18, 08:45:04,VALID,917.025,VALID,0,VALID,76.8974,VALID,236.263,VALID,22.8226,VALID,30,VALID,0,
2013-04-18, 08:46:04,VALID,916.954,VALID,0,VALID,75.327,VALID,250.66,VALID,22.9007,VALID,30,VALID,0,
2013-04-18, 08:47:04,VALID,916.976,VALID,0,VALID,75.1288,VALID,272.041,VALID,22.9983,VALID,31,VALID,0,
2013-04-18, 08:48:04,VALID,917.71,VALID,0,VALID,75.7768,VALID,271.181,VALID,23.1331,VALID,30,VALID,0,
2013-04-18, 08:49:04,VALID,917.487,VALID,0,VALID,76.3561,VALID,268.388,VALID,23.3709,VALID,30,VALID,0,
2013-04-18, 08:50:04,INVALID,915.38,VALID,0,VALID,74.4732,VALID,257.107,VALID,23.4667,VALID,338,VALID,0,
2013-04-18, 08:51:04,VALID,916.402,VALID,0,VALID,74.2444,VALID,240.668,VALID,23.5253,VALID,335,VALID,0,
2013-04-18, 08:52:04,VALID,916.986,VALID,0,VALID,75.2736,VALID,241.313,VALID,23.5643,VALID,345,VALID,0,
2013-04-18, 08:53:04,VALID,917.038,VALID,0,VALID,74.3131,VALID,246.47,VALID,23.4863,VALID,21,VALID,0,
2013-04-18, 08:54:04,VALID,918.938,VALID,0,VALID,73.5888,VALID,241.205,VALID,23.3496,VALID,330,VALID,0,
2013-04-18, 08:55:04,INVALID,915.655,VALID,0,VALID,73.7947,VALID,240.131,VALID,23.1935,VALID,358,VALID,0,
2013-04-18, 08:56:04,VALID,917.139,VALID,0,VALID,74.9458,VALID,247.437,VALID,23.0356,VALID,359,VALID,0,
2013-04-18, 08:57:04,VALID,916.916,VALID,0,VALID,74.679,VALID,260.33,VALID,22.9787,VALID,359,VALID,0,
2013-04-18, 08:58:04,VALID,917.238,VALID,0,VALID,75.2736,VALID,309.431,VALID,22.938,VALID,25,VALID,0,
2013-04-18, 08:59:04,VALID,917.047,VALID,0,VALID,76.6001,VALID,328.555,VALID,22.9787,VALID,15,VALID,0,
2013-04-18, 09:00:04,VALID,917.292,VALID,0,VALID,77.797,VALID,359.606,VALID,23.0373,VALID,9,VALID,0,
2013-04-18, 09:01:04,VALID,918.742,VALID,0,VALID,78.1858,VALID,314.158,VALID,23.1349,VALID,11,VALID,0,
2013-04-18, 09:02:04,VALID,917.8,VALID,0,VALID,76.8745,VALID,280.851,VALID,23.2325,VALID,351,VALID,0,
2013-04-18, 09:03:04,VALID,917.976,VALID,0,VALID,79.1768,VALID,290.306,VALID,23.3106,VALID,11,VALID,0,
2013-04-18, 09:04:04,VALID,917.135,VALID,0,VALID,76.5391,VALID,332.96,VALID,23.3301,VALID,355,VALID,0,
2013-04-18, 09:05:04,VALID,917.123,VALID,0,VALID,77.7207,VALID,335.324,VALID,23.3301,VALID,8,VALID,0,
2013-04-18, 09:06:04,VALID,917.145,VALID,0,VALID,77.0346,VALID,337.795,VALID,23.2715,VALID,15,VALID,0,
2013-04-18, 09:07:04,VALID,917.12,VALID,0,VALID,77.8579,VALID,408.384,VALID,23.2911,VALID,9,VALID,0,
2013-04-18, 09:08:04,VALID,917.129,VALID,0,VALID,78.9328,VALID,437.715,VALID,23.3301,VALID,45,VALID,0,
2013-04-18, 09:09:04,VALID,917.108,VALID,0,VALID,75.6395,VALID,341.233,VALID,23.3496,VALID,24,VALID,0,
2013-04-18, 09:10:04,VALID,917.138,VALID,0,VALID,76.783,VALID,348.109,VALID,23.2502,INVALID,360,VALID,0,
2013-04-18, 09:11:04,VALID,917.116,VALID,0,VALID,77.4539,VALID,439.005,VALID,23.252,VALID,8,VALID,0,
2013-04-18, 09:12:04,VALID,917.127,VALID,0,VALID,79.3903,VALID,350.795,VALID,23.252,VALID,17,VALID,0,
2013-04-18, 09:13:04,VALID,917.159,VALID,0,VALID,77.2557,VALID,323.828,VALID,23.2893,VALID,16,VALID,0,
2013-04-18, 09:14:04,VALID,917.148,VALID,0,VALID,77.2633,VALID,346.068,VALID,23.3301,VALID,7,VALID,0,
2013-04-18, 09:15:04,VALID,917.135,VALID,0,VALID,78.1324,VALID,379.16,VALID,23.3283,VALID,16,VALID,0,
2013-04-18, 09:16:04,VALID,917.168,VALID,0,VALID,77.736,VALID,380.019,VALID,23.3887,VALID,332,VALID,0,
2013-04-18, 09:17:04,VALID,917.17,VALID,0,VALID,75.8606,VALID,349.721,VALID,23.4472,VALID,2,VALID,0,
2013-04-18, 09:18:04,VALID,917.192,VALID,0,VALID,76.9279,VALID,346.39,VALID,23.4472,VALID,21,VALID,0,
2013-04-18, 09:19:04,VALID,917.184,VALID,0,VALID,76.501,VALID,339.407,VALID,23.4472,VALID,40,VALID,0,
2013-04-18, 09:20:04,VALID,917.244,VALID,0,VALID,75.2812,VALID,320.39,VALID,23.3674,VALID,15,VALID,0,
2013-04-18, 09:21:04,VALID,917.249,VALID,0,VALID,77.1566,VALID,304.918,VALID,23.3283,VALID,14,VALID,0,
2013-04-18, 09:22:04,VALID,917.241,VALID,0,VALID,77.4615,VALID,293.207,VALID,23.3674,VALID,355,VALID,0,
2013-04-18, 09:23:04,VALID,917.212,VALID,0,VALID,74.9687,VALID,307.497,VALID,23.3478,VALID,355,VALID,0,
2013-04-18, 09:24:04,VALID,917.211,VALID,0,VALID,75.3117,VALID,311.15,VALID,23.3674,VALID,355,VALID,0,
2013-04-18, 09:25:04,VALID,917.23,VALID,0,VALID,77.2557,VALID,325.547,VALID,23.4277,VALID,26,VALID,0,
2013-04-18, 09:26:04,VALID,917.201,VALID,0,VALID,75.5709,VALID,331.349,VALID,23.465,VALID,335,VALID,0,
2013-04-18, 09:27:04,VALID,917.244,VALID,0,VALID,76.0283,VALID,311.15,VALID,23.5235,VALID,335,VALID,0,
2013-04-18, 09:28:04,VALID,917.181,VALID,0,VALID,76.2418,VALID,316.737,VALID,23.5253,VALID,4,VALID,0,
2013-04-18, 09:29:04,VALID,917.19,VALID,0,VALID,77.6521,VALID,308.464,VALID,23.4845,VALID,24,VALID,0,
2013-04-18, 09:30:04,VALID,917.206,VALID,0,VALID,73.8938,VALID,331.456,VALID,23.465,VALID,25,VALID,0,
2013-04-18, 09:31:04,VALID,917.179,VALID,0,VALID,74.5799,VALID,317.703,VALID,23.504,VALID,286,VALID,0,
2013-04-18, 09:32:04,VALID,917.215,VALID,0,VALID,75.3803,VALID,321.464,VALID,23.543,VALID,239,VALID,0,
2013-04-18, 09:33:04,VALID,917.205,VALID,0,VALID,74.679,VALID,325.332,VALID,23.5821,VALID,251,VALID,0,
2013-04-18, 09:34:04,VALID,917.22,VALID,0,VALID,75.5099,VALID,329.2,VALID,23.6034,VALID,254,VALID,0,
2013-04-18, 09:35:04,VALID,917.204,VALID,0,VALID,75.7158,VALID,357.994,VALID,23.543,VALID,254,VALID,0,
2013-04-18, 09:36:04,VALID,917.171,VALID,0,VALID,74.6256,VALID,417.301,VALID,23.5626,VALID,253,VALID,0,
2013-04-18, 09:37:04,VALID,917.17,VALID,0,VALID,75.3575,VALID,496.378,VALID,23.6229,VALID,258,VALID,0,
2013-04-18, 09:38:04,VALID,917.139,VALID,0,VALID,73.8938,VALID,613.274,VALID,23.6211,VALID,266,VALID,0,
2013-04-18, 09:39:04,VALID,917.149,VALID,0,VALID,75.914,VALID,513.246,VALID,23.7382,VALID,264,VALID,0,
2013-04-18, 09:40:04,VALID,917.118,VALID,0,VALID,76.5086,VALID,558.264,VALID,23.9725,VALID,270,VALID,0,
2013-04-18, 09:41:04,VALID,917.122,VALID,0,VALID,71.9803,VALID,524.528,VALID,24.0701,VALID,269,VALID,0,
2013-04-18, 09:42:04,VALID,917.102,VALID,0,VALID,72.2852,VALID,565.893,VALID,24.1677,VALID,315,VALID,0,
2013-04-18, 09:43:04,VALID,917.089,VALID,0,VALID,72.1709,VALID,559.339,VALID,24.2849,VALID,299,VALID,0,
2013-04-18, 09:44:04,VALID,917.07,VALID,0,VALID,70.6005,VALID,565.785,VALID,24.3825,VALID,223,VALID,0,
2013-04-18, 09:45:04,VALID,917.055,VALID,0,VALID,71.4162,VALID,533.016,VALID,24.5778,VALID,224,VALID,0,
2013-04-18, 09:46:04,VALID,917.038,VALID,0,VALID,69.8305,VALID,558.909,VALID,24.7535,VALID,359,VALID,0,
2013-04-18, 09:47:04,VALID,917.02,VALID,0,VALID,70.8749,VALID,611.233,VALID,24.8316,VALID,9,VALID,0,
2013-04-18, 09:48:04,VALID,917.023,VALID,0,VALID,71.8354,VALID,672.152,VALID,24.9488,INVALID,360,VALID,0,
2013-04-18, 09:49:04,VALID,917.029,VALID,0,VALID,70.8063,VALID,539.677,VALID,25.146,VALID,22,VALID,0,
2013-04-18, 09:50:04,VALID,917.019,VALID,0,VALID,71.2713,VALID,628.638,VALID,25.2827,VALID,16,VALID,0,
2013-04-18, 09:51:04,VALID,917.02,VALID,0,VALID,69.5942,VALID,622.836,VALID,25.3804,VALID,313,VALID,0,
2013-04-18, 09:52:04,VALID,916.962,VALID,0,VALID,70.2574,VALID,499.386,VALID,25.3784,VALID,41,VALID,0,
2013-04-18, 09:53:04,VALID,917,VALID,0,VALID,68.5726,VALID,439.219,VALID,25.4565,VALID,7,VALID,0,
2013-04-18, 09:54:04,VALID,917.015,VALID,0,VALID,70.0363,VALID,582.761,VALID,25.5151,VALID,357,VALID,0,
2013-04-18, 09:55:04,VALID,917.02,VALID,0,VALID,66.156,VALID,614.456,VALID,25.4546,VALID,314,VALID,0,
2013-04-18, 09:56:04,VALID,916.995,VALID,0,VALID,68.4049,VALID,624.555,VALID,25.5347,VALID,359,VALID,0,
2013-04-18, 09:57:04,VALID,917.001,VALID,0,VALID,68.6946,VALID,699.657,VALID,25.5737,VALID,17,VALID,0,
2013-04-18, 09:58:04,VALID,916.985,VALID,0,VALID,70.7987,VALID,557.297,VALID,25.5523,VALID,35,VALID,0,
2013-04-18, 09:59:04,VALID,917,VALID,0,VALID,68.9843,VALID,531.189,VALID,25.5737,VALID,16,VALID,0,
2013-04-18, 10:00:04,VALID,916.994,VALID,0,VALID,70.8901,VALID,511.42,VALID,25.5151,VALID,49,VALID,0,
2013-04-18, 10:01:04,VALID,917.008,VALID,0,VALID,68.5269,VALID,461.137,VALID,25.4956,VALID,275,VALID,0,
2013-04-18, 10:02:04,VALID,917.006,VALID,0,VALID,67.6273,VALID,447.385,VALID,25.3589,VALID,17,VALID,0,
2013-04-18, 10:03:04,VALID,917.024,VALID,0,VALID,69.556,VALID,391.301,VALID,25.3589,VALID,23,VALID,0,
2013-04-18, 10:04:04,VALID,917.009,VALID,0,VALID,67.1699,VALID,416.334,VALID,25.2612,VALID,282,VALID,0,
2013-04-18, 10:05:04,VALID,917.021,VALID,0,VALID,70.5547,VALID,423.748,VALID,25.0464,VALID,50,VALID,0,
2013-04-18, 10:06:04,VALID,916.995,VALID,0,VALID,71.0045,VALID,388.185,VALID,25.1031,VALID,3,VALID,0,
2013-04-18, 10:07:04,VALID,917.044,VALID,0,VALID,70.2727,VALID,417.087,VALID,25.2398,VALID,359,VALID,0,
2013-04-18, 10:08:04,VALID,917.084,VALID,0,VALID,69.6323,VALID,398.929,VALID,25.3179,VALID,52,VALID,0,
2013-04-18, 10:09:04,VALID,917.074,VALID,0,VALID,68.7098,VALID,379.052,VALID,25.3003,VALID,35,VALID,0,
2013-04-18, 10:10:04,VALID,917.095,VALID,0,VALID,69.5484,VALID,338.44,VALID,25.2398,VALID,35,VALID,0,
2013-04-18, 10:11:04,VALID,917.08,VALID,0,VALID,69.2969,VALID,341.126,VALID,25.1422,VALID,28,VALID,0,
2013-04-18, 10:12:04,VALID,917.08,VALID,0,VALID,69.9525,VALID,333.712,VALID,25.0855,VALID,341,VALID,0,
2013-04-18, 10:13:04,VALID,917.058,VALID,0,VALID,70.0135,VALID,315.877,VALID,24.9859,VALID,30,VALID,0,
2013-04-18, 10:14:04,VALID,917.034,VALID,0,VALID,71.2561,VALID,307.067,VALID,24.9469,VALID,29,VALID,0,
2013-04-18, 10:15:04,VALID,917.041,VALID,0,VALID,71.5153,VALID,309.538,VALID,24.9878,VALID,27,VALID,0,
2013-04-18, 10:16:04,VALID,917.024,VALID,0,VALID,70.5852,VALID,310.505,VALID,24.9664,VALID,35,VALID,0,
2013-04-18, 10:17:04,VALID,916.993,VALID,0,VALID,70.1888,VALID,310.183,VALID,24.9878,VALID,35,VALID,0,
2013-04-18, 10:18:04,VALID,917.009,VALID,0,VALID,71.5839,VALID,314.695,VALID,25.0074,VALID,329,VALID,0,
2013-04-18, 10:19:04,VALID,916.963,VALID,0,VALID,70.2727,VALID,325.547,VALID,25.0855,VALID,43,VALID,0,
2013-04-18, 10:20:04,VALID,916.969,VALID,0,VALID,72.3157,VALID,332.315,VALID,25.1441,VALID,28,VALID,0,
2013-04-18, 10:21:04,VALID,916.957,VALID,0,VALID,70.3794,VALID,329.952,VALID,25.0855,VALID,29,VALID,0,
2013-04-18, 10:22:04,VALID,916.925,VALID,0,VALID,72.0032,VALID,328.34,VALID,24.9488,VALID,42,VALID,0,
2013-04-18, 10:23:04,VALID,916.914,VALID,0,VALID,71.9879,VALID,344.349,VALID,24.9664,VALID,11,VALID,0,
2013-04-18, 10:24:04,VALID,916.928,VALID,0,VALID,71.7516,VALID,363.581,VALID,24.9878,VALID,38,VALID,0,
2013-04-18, 10:25:04,VALID,916.93,VALID,0,VALID,73.0552,VALID,372.498,VALID,24.9664,VALID,13,VALID,0,
2013-04-18, 10:26:04,VALID,916.913,VALID,0,VALID,72.5444,VALID,370.565,VALID,24.9683,VALID,358,VALID,0,
2013-04-18, 10:27:04,VALID,916.92,VALID,0,VALID,71.0884,VALID,341.663,VALID,24.8883,VALID,18,VALID,0,
2013-04-18, 10:28:04,VALID,916.926,VALID,0,VALID,70.265,VALID,337.902,VALID,24.8707,VALID,14,VALID,0,
2013-04-18, 10:29:04,VALID,916.896,VALID,0,VALID,71.5991,VALID,337.58,VALID,24.7126,VALID,22,VALID,0,
2013-04-18, 10:30:04,VALID,916.86,VALID,0,VALID,72.026,VALID,330.811,VALID,24.6168,VALID,18,VALID,0,
2013-04-18, 10:31:04,VALID,916.852,VALID,0,VALID,72.5597,VALID,329.307,VALID,24.6559,VALID,340,VALID,0,
2013-04-18, 10:32:04,VALID,916.824,VALID,0,VALID,71.7135,VALID,325.009,VALID,24.6949,VALID,240,VALID,0,
2013-04-18, 10:33:04,VALID,916.845,VALID,0,VALID,72.1861,VALID,319.96,VALID,24.7535,VALID,240,VALID,0,
2013-04-18, 10:34:04,VALID,916.827,VALID,0,VALID,71.6372,VALID,320.282,VALID,24.8511,VALID,72,VALID,0,
2013-04-18, 10:35:04,VALID,916.772,VALID,0,VALID,71.8583,VALID,321.679,VALID,24.9488,VALID,69,VALID,0,
2013-04-18, 10:36:04,VALID,916.811,VALID,0,VALID,71.8659,VALID,321.142,VALID,25.0074,VALID,348,VALID,0,
2013-04-18, 10:37:04,VALID,916.777,VALID,0,VALID,70.6462,VALID,327.051,VALID,25.0269,VALID,34,VALID,0,
2013-04-18, 10:38:04,VALID,916.753,VALID,0,VALID,72.3462,VALID,327.158,VALID,25.0464,VALID,19,VALID,0,
2013-04-18, 10:39:04,VALID,916.759,VALID,0,VALID,72.5444,VALID,326.943,VALID,25.0855,VALID,26,VALID,0,
2013-04-18, 10:40:04,VALID,916.762,VALID,0,VALID,71.8278,VALID,315.447,VALID,25.1636,VALID,23,VALID,0,
2013-04-18, 10:41:04,VALID,916.764,VALID,0,VALID,71.2027,VALID,312.976,VALID,25.2612,VALID,20,VALID,0,
2013-04-18, 10:42:04,VALID,916.787,VALID,0,VALID,72.026,VALID,312.439,VALID,25.3198,VALID,30,VALID,0,
2013-04-18, 10:43:04,VALID,916.779,VALID,0,VALID,69.8457,VALID,312.976,VALID,25.2808,VALID,360,VALID,0,
2013-04-18, 10:44:04,VALID,916.773,VALID,0,VALID,70.6005,VALID,313.298,VALID,25.1812,VALID,46,VALID,0,
2013-04-18, 10:45:04,VALID,916.753,VALID,0,VALID,70.6996,VALID,329.952,VALID,25.1245,VALID,16,VALID,0,
2013-04-18, 10:46:04,VALID,916.779,VALID,0,VALID,72.1556,VALID,344.886,VALID,25.0855,VALID,33,VALID,0,
2013-04-18, 10:47:04,VALID,916.747,VALID,0,VALID,69.556,VALID,330.489,VALID,25.0836,VALID,7,VALID,0,
2013-04-18, 10:48:04,VALID,916.724,VALID,0,VALID,69.1977,VALID,321.034,VALID,25.0464,VALID,9,VALID,0,
2013-04-18, 10:49:04,VALID,916.708,VALID,0,VALID,70.4022,VALID,319.96,VALID,24.9292,VALID,24,VALID,0,
2013-04-18, 10:50:04,VALID,916.716,VALID,0,VALID,70.3641,VALID,321.249,VALID,24.7711,VALID,31,VALID,0,
2013-04-18, 10:51:04,VALID,916.688,VALID,0,VALID,71.096,VALID,322.216,VALID,24.5778,VALID,15,VALID,0,
2013-04-18, 10:52:04,VALID,916.725,VALID,0,VALID,71.8812,VALID,323.613,VALID,24.4997,VALID,10,VALID,0,
2013-04-18, 10:53:04,VALID,916.726,VALID,0,VALID,71.7897,VALID,322.861,VALID,24.5387,VALID,36,VALID,0,
2013-04-18, 10:54:04,VALID,916.693,VALID,0,VALID,72.1175,VALID,322.968,VALID,24.6168,VALID,18,VALID,0,
2013-04-18, 10:55:04,VALID,916.724,VALID,0,VALID,72.2776,VALID,327.696,VALID,24.7144,VALID,359,VALID,0,
2013-04-18, 10:56:04,VALID,916.729,VALID,0,VALID,72.2395,VALID,336.183,VALID,24.8121,VALID,15,VALID,0,
2013-04-18, 10:57:04,VALID,916.68,VALID,0,VALID,71.378,VALID,359.713,VALID,24.8688,VALID,4,VALID,0,
2013-04-18, 10:58:04,VALID,916.67,VALID,0,VALID,73.1772,VALID,389.367,VALID,24.9292,VALID,24,VALID,0,
2013-04-18, 10:59:04,VALID,916.659,VALID,0,VALID,70.9588,VALID,454.154,VALID,24.9878,VALID,354,VALID,0,
2013-04-18, 11:00:04,VALID,916.638,VALID,0,VALID,69.7619,VALID,569.546,VALID,24.9292,VALID,14,VALID,0,
2013-04-18, 11:01:04,VALID,916.638,VALID,0,VALID,73.3906,VALID,728.129,VALID,24.9488,VALID,21,VALID,0,
2013-04-18, 11:02:04,VALID,916.639,VALID,0,VALID,71.1875,VALID,788.296,VALID,25.1831,VALID,29,VALID,0,
2013-04-18, 11:03:04,VALID,916.632,VALID,0,VALID,71.2103,VALID,707.822,VALID,25.398,VALID,6,VALID,0,
2013-04-18, 11:04:04,VALID,916.652,VALID,0,VALID,70.1507,VALID,607.687,VALID,25.5933,VALID,21,VALID,0,
2013-04-18, 11:05:04,VALID,916.643,VALID,0,VALID,68.2067,VALID,594.042,VALID,25.728,VALID,247,VALID,0,
2013-04-18, 11:06:04,VALID,916.627,VALID,0,VALID,69.0453,VALID,507.23,VALID,25.6909,VALID,34,VALID,0,
2013-04-18, 11:07:04,VALID,916.614,VALID,0,VALID,67.0403,VALID,414.938,VALID,25.6694,VALID,44,VALID,0,
2013-04-18, 11:08:04,VALID,916.604,VALID,0,VALID,68.2524,VALID,463.716,VALID,25.6714,VALID,13,VALID,0,
2013-04-18, 11:09:04,VALID,916.598,VALID,0,VALID,68.5345,VALID,652.168,VALID,25.6519,VALID,271,VALID,0,
2013-04-18, 11:10:04,VALID,916.582,VALID,0,VALID,67.8027,VALID,644.969,VALID,25.6714,VALID,327,VALID,0,
2013-04-18, 11:11:04,VALID,916.504,VALID,0,VALID,70.2879,VALID,694.607,VALID,25.6128,VALID,7,VALID,0,
2013-04-18, 11:12:04,VALID,916.538,VALID,0,VALID,71.805,VALID,1037.67,VALID,25.6323,VALID,31,VALID,0,
2013-04-18, 11:13:04,VALID,916.529,VALID,0,VALID,70.8978,VALID,805.057,VALID,25.8863,VALID,344,VALID,0,
2013-04-18, 11:14:04,VALID,916.549,VALID,0,VALID,67.2462,VALID,564.926,VALID,26.023,VALID,220,VALID,0,
2013-04-18, 11:15:04,VALID,916.532,VALID,0,VALID,69.4188,VALID,435.674,VALID,26.1402,VALID,10,VALID,0,
2013-04-18, 11:16:04,VALID,916.541,VALID,0,VALID,70.1202,VALID,479.188,VALID,26.275,VALID,316,VALID,0,
2013-04-18, 11:17:04,VALID,916.564,VALID,0,VALID,68.6412,VALID,458.451,VALID,26.3922,VALID,4,VALID,0,
2013-04-18, 11:18:04,VALID,916.586,VALID,0,VALID,65.5461,VALID,452.757,VALID,26.4312,VALID,359,VALID,0,
2013-04-18, 11:19:04,VALID,916.531,VALID,0,VALID,66.1636,VALID,607.58,VALID,26.314,VALID,153,VALID,0,
2013-04-18, 11:20:04,VALID,916.537,VALID,0,VALID,67.1318,VALID,738.228,VALID,26.2164,VALID,51,VALID,0,
2013-04-18, 11:21:04,VALID,916.532,VALID,0,VALID,68.4888,VALID,647.118,VALID,26.2164,VALID,14,VALID,0,
2013-04-18, 11:22:04,VALID,916.512,VALID,0,VALID,67.8179,VALID,560.95,VALID,26.1578,VALID,16,VALID,0,
2013-04-18, 11:23:04,VALID,916.444,VALID,0,VALID,69.556,VALID,537.958,VALID,26.0621,VALID,26,VALID,0,
2013-04-18, 11:24:04,VALID,916.464,VALID,0,VALID,67.5206,VALID,642.498,VALID,25.9624,VALID,20,VALID,0,
2013-04-18, 11:25:04,VALID,916.452,VALID,0,VALID,67.7722,VALID,570.405,VALID,25.8843,VALID,2,VALID,0,
2013-04-18, 11:26:04,VALID,916.429,VALID,0,VALID,68.6031,VALID,539.462,VALID,25.8081,VALID,12,VALID,0,
2013-04-18, 11:27:04,VALID,916.412,VALID,0,VALID,68.8547,VALID,643.143,VALID,25.6714,VALID,35,VALID,0,
2013-04-18, 11:28:04,VALID,916.416,VALID,0,VALID,70.6767,VALID,712.872,VALID,25.7105,VALID,12,VALID,0,
2013-04-18, 11:29:04,VALID,916.386,VALID,0,VALID,70.8292,VALID,981.367,VALID,25.8472,VALID,72,VALID,0,
2013-04-18, 11:30:04,VALID,916.409,VALID,0,VALID,67.4825,VALID,882.844,VALID,25.7886,VALID,273,VALID,0,
2013-04-18, 11:31:04,VALID,916.398,VALID,0,VALID,72.5292,VALID,700.087,VALID,25.6694,VALID,43,VALID,0,
2013-04-18, 11:32:04,VALID,916.404,VALID,0,VALID,70.1202,VALID,707.715,VALID,25.7085,VALID,17,VALID,0,
2013-04-18, 11:33:04,VALID,916.415,VALID,0,VALID,69.3502,VALID,753.485,VALID,25.6109,VALID,293,VALID,0,
2013-04-18, 11:34:04,VALID,916.366,VALID,0,VALID,68.7022,VALID,815.801,VALID,25.5327,VALID,342,VALID,0,
2013-04-18, 11:35:04,VALID,916.357,VALID,0,VALID,70.9054,VALID,988.781,VALID,25.6109,VALID,327,VALID,0,
2013-04-18, 11:36:04,VALID,916.34,VALID,0,VALID,71.2484,VALID,995.442,VALID,25.7691,VALID,359,VALID,0,
2013-04-18, 11:37:04,VALID,915.753,VALID,0,VALID,69.6856,VALID,1022.62,VALID,25.8843,VALID,27,VALID,0,
2013-04-18, 11:38:04,VALID,915.742,VALID,0,VALID,69.6933,VALID,1013.81,VALID,26.0015,VALID,19,VALID,0,
2013-04-18, 11:39:04,VALID,916.309,VALID,0,VALID,68.4354,VALID,984.268,VALID,26.1773,VALID,310,VALID,0,
2013-04-18, 11:40:04,VALID,916.285,VALID,0,VALID,66.865,VALID,948.276,VALID,26.3531,VALID,5,VALID,0,
2013-04-18, 11:41:04,VALID,916.302,VALID,0,VALID,64.6085,VALID,553.752,VALID,26.2945,VALID,356,VALID,0,
2013-04-18, 11:42:04,VALID,916.284,VALID,0,VALID,70.6462,VALID,771.32,VALID,26.1362,VALID,36,VALID,0,